User: anonymous   Login
Location: Unspecified
(0.0000°N, 0.0000°E)
Time: 11:35:43
(UTC+00:00)
Language:

OPTUS D3 - Orbit

View from above orbital plane
View from above orbital plane
View from above satellite
View from above satellite

Ground track
Ground track

The orbit data is extracted from the following two-line orbital elements,

1 35756U 09044B   15029.80528125 -.00000165  00000-0  00000+0 0  2941
2 35756 000.0442 335.9086 0003944 338.9206 259.7699 01.00271542 19956
Epoch (UTC): 29 January 2015 19:19:36
Eccentricity: 0.0003944
inclination: 0.0442°
perigee height: 35769 km
apogee height: 35803 km
right ascension of ascending node: 335.9086°
argument of perigee: 338.9206°
revolutions per day: 1.00271542
mean anomaly at epoch: 259.7699°
orbit number at epoch: 1995

The dashed part of the orbit path shows where the satellite is in the earth's shadow,  

DLR